Погода в Черикове

Беларусь     53°34′10″N   31°22′50″E
темп.,
°C
ветер,
м/с
пор.,
м/с
влажн.,
%
обл.,
%
осадки,
мм/ч
давл.,
гПа
погр.,
м
6 марта, сб
сб600:00−6сз398493 0.0 1019356
03:00−8сз268460 0.0 1020136
06:00−9сз24844 0.0 1020111
09:00−6сз237743 0.0 1021188
12:00−3сз236389 0.0 10221053
15:00−2зсз356187 0.1 10211353
18:00−4з377342 0.1 1021349
21:00−5зюз4117821 0.1 1020373
7 марта, вс
вс700:00−5зюз5127717 0.0 1018466
03:00−5юз6157851 0.0 1014654
06:00−3юз81675100 0.0 1009930
09:00−2зюз91786100 0.1 10051179
12:000з91789100 0.8 10041372
15:00−1сз61162100 2.9 10041379
18:00−2зюз397482 0.0 1003944
21:00−2зюз5138582 0.3 10031096
8 марта, пн
пн800:00−4з6147747 0.1 10021048
03:00−6сз7157456 0.2 10041516
06:00−8зсз613700 0.0 1006993
09:00−8сз611730 0.0 1009971
12:00−5сз58670 0.0 10101042
15:00−4зсз58673 0.0 10111245
18:00−5зсз3776100 0.1 1012913
21:00−7сз388999 0.1 1014321
9 марта, вт
вт900:00−8ссз388999 0.0 1015512
03:00−10ссз389085 0.0 1017342
06:00−11ссз38900 0.0 1019380
09:00−10ссз488624 0.0 1021538
12:00−8сз357445 0.0 1022645
15:00−5зсз356625 0.0 1022708
18:00−6зюз3872100 0.0 1021537
21:00−7зюз3117699 0.0 1022343
10 марта, ср
ср1000:00−6зюз4117297 0.0 1021366
03:00−6зюз497898 0.0 1021330
06:00−7зюз497995 0.0 1020334
09:00−6зюз497597 0.0 1019437
12:00−3з4663100 0.0 1019799
15:00−1зсз3565100 0.0 10191203
18:00−3зсз247692 0.1 1019115
21:00−6ссв239361 0.1 102178